Starlink 3851

operational
NORAD ID: 52344 Int'l Des: 2022-045 Owner: SPXS Country: US Constellation: starlink
LEOCIRCULAR

Starlink 3851について

説明を読み込み中...

リアルタイム位置

3D地球を読み込み中...

次回通過

高度履歴

Altitude vs Time

uPlot chart will show altitude changes over time

軌道要素

1 52344U 22045P 26073.68269184 .00000558 00000-0 53170-4 0 9991
2 52344 53.2171 176.7720 0001448 103.9091 256.2063 15.08846580216535
Epoch: Mar 14, 2026 • Age: 18 hours

現在のステータス

高度 539.5 km
速度 7.60 km/s
衛星直下点 19.40°N, 6.77°E
打ち上げ日 Apr 29, 2022
運用期間 3.8 years
タイプ internet

技術仕様

分類 Payload
質量 297.00 kg
乾燥質量 275.00 kg
総質量 297.00 kg
長さ 0.20 m
直径 2.80 m
スパン 9.00 m
形状 Box + pan
製造者 SPXS
バスタイプ Starlink
フェーズステータス In Orbit
所有者/国 SPXS/US

大規模コンステレーション

Loading constellations...